This demonstration page uses our WeatherBlox Daily Observations layout. Learn more.

41.55636, -103.73856

Hourly Observations for November 6, 2015

Temp ( °F °C ) Dew Point ( °F °C ) Humidity (%) Winds ( mph kmh ) Pressure ( in mb ) Visibility ( mi km ) Precip ( " mm )
12:53 am 00:53 Clear 31 -0.6 28 -2.2 89 89 N 8 13 30.07 1018 10 16.0934 0 0
1:53 am 01:53 Clear 31 -0.6 28 -2.2 89 89 N 6 9 30.09 1019 10 16.0934 0 0
2:53 am 02:53 Cloudy 33 0.6 29 -1.7 85 85 NW 3 6 30.1 1019 10 16.0934 0 0
3:53 am 03:53 Cloudy 34 1.1 30 -1.1 85 85 WNW 5 7 30.12 1020 10 16.0934 0 0
4:53 am 04:53 Cloudy 34 1.1 30 -1.1 85 85 NW 5 7 30.16 1021 10 16.0934 0 0
5:53 am 05:53 Cloudy 34 1.1 30 -1.1 85 85 NW 6 9 30.19 1022 10 16.0934 0 0
6:53 am 06:53 Cloudy 33 0.6 30 -1.1 89 89 WNW 3 6 30.22 1023 10 16.0934 0 0
7:53 am 07:53 Cloudy 34 1.1 31 -0.6 89 89 W 6 9 30.24 1024 10 16.0934 0 0.0254
8:53 am 08:53 Cloudy 35 1.7 30 -1.1 82 82 W 9 15 30.25 1024 10 16.0934 0 0
9:53 am 09:53 Cloudy 36 2.2 30 -1.1 79 79 WNW 6 9 30.27 1025 10 16.0934 0 0
10:53 am 10:53 Mostly Cloudy 39 3.9 31 -0.6 73 73 WNW 7 11 30.26 1025 10 16.0934 0 0
11:53 am 11:53 Cloudy 41 5 31 -0.6 67 67 WNW 12 19 30.24 1024 10 16.0934 0 0
12:53 pm 12:53 Cloudy 41 5 30 -1.1 65 65 WNW 10 17 30.25 1024 10 16.0934 0 0
1:53 pm 13:53 Sunny 42 5.6 30 -1.1 62 62 WNW 9 15 30.25 1024 10 16.0934 0 0
2:53 pm 14:53 Mostly Sunny 43 6.1 29 -1.7 58 58 WNW 9 15 30.24 1024 10 16.0934 0 0
3:53 pm 15:53 Sunny 40 4.4 29 -1.7 65 65 W 6 9 30.26 1025 10 16.0934 0 0
4:53 pm 16:53 Clear 37 2.8 28 -2.2 70 70 W 7 11 30.28 1026 10 16.0934 0 0
5:53 pm 17:53 Clear 35 1.7 27 -2.8 72 72 Calm 30.32 1027 10 16.0934 0 0
6:53 pm 18:53 Clear 31 -0.6 27 -2.8 85 85 WNW 7 11 30.36 1028 10 16.0934 0 0
7:53 pm 19:53 Clear 29 -1.7 26 -3.3 89 89 NNW 6 9 30.37 1029 10 16.0934 0 0
8:53 pm 20:53 Clear 29 -1.7 26 -3.3 89 89 NNW 8 13 30.39 1029 10 16.0934 0 0
9:53 pm 21:53 Clear 27 -2.8 25 -3.9 92 92 Calm 30.4 1030 10 16.0934 0 0
10:53 pm 22:53 Clear 29 -1.7 25 -3.9 85 85 Calm 30.4 1029 10 16.0934 0 0
11:53 pm 23:53 Clear 24 -4.4 21 -6.1 88 88 Calm 30.4 1029 10 16.0934 0 0

Powered by AerisWeather